Location: Newark
(52.2090°N, 4.1550°W)
Time: 08:17:10
(UTC+00:00)

Tiros 1 - All Passes

Search period start: 20 September 2019 00:00
Search period end: 30 September 2019 00:00
Orbit: 630 x 664 km, 48.4° (Epoch: 20 September)

Date Brightness Start Highest point End Pass type
(mag) Time Alt. Az. Time Alt. Az. Time Alt. Az.
20 Sep - 12:31:44 10° S 12:34:02 14° SE 12:36:21 10° ESE daylight
20 Sep - 14:11:01 10° SW 14:15:20 36° SSE 14:19:37 10° E daylight
20 Sep - 15:52:31 10° WSW 15:57:06 54° S 16:01:40 10° ESE daylight
20 Sep - 17:34:33 10° W 17:38:55 40° SSW 17:43:15 10° SE daylight
20 Sep - 19:17:25 10° WSW 19:20:17 16° SW 19:23:07 10° S visible
21 Sep - 12:55:54 10° SSW 12:59:37 23° SSE 13:03:19 10° E daylight
21 Sep - 14:36:39 10° WSW 14:41:11 48° SSE 14:45:41 10° E daylight
21 Sep - 16:18:29 10° W 16:23:03 51° S 16:27:34 10° ESE daylight
21 Sep - 18:00:44 10° W 18:04:42 28° SSW 18:08:38 10° SSE daylight
22 Sep - 11:42:01 10° SSE 11:44:05 13° SE 11:46:09 10° ESE daylight
22 Sep - 13:21:03 10° SW 13:25:21 35° SSE 13:29:37 10° E daylight
22 Sep - 15:02:30 10° WSW 15:07:07 54° S 15:11:41 10° E daylight
22 Sep - 16:44:31 10° W 16:48:56 41° SSW 16:53:18 10° SE daylight
22 Sep - 18:27:18 10° WSW 18:30:19 17° SW 18:33:20 10° S daylight
23 Sep - 12:06:00 10° SSW 12:09:39 22° SSE 12:13:16 10° E daylight
23 Sep - 13:46:39 10° WSW 13:51:12 47° SSE 13:55:42 10° E daylight
23 Sep - 15:28:28 10° W 15:33:03 52° S 15:37:35 10° ESE daylight
23 Sep - 17:10:41 10° W 17:14:44 29° SSW 17:18:44 10° SSE daylight
24 Sep - 10:52:22 10° SSE 10:54:08 12° SE 10:55:55 10° ESE daylight
24 Sep - 12:31:06 10° SW 12:35:21 34° SSE 12:39:36 10° E daylight
24 Sep - 14:12:29 10° WSW 14:17:07 54° S 14:21:41 10° E daylight
24 Sep - 15:54:30 10° W 15:58:57 43° SSW 16:03:21 10° SE daylight
24 Sep - 17:37:11 10° W 17:40:22 18° SW 17:43:32 10° S daylight
25 Sep - 11:16:07 10° SSW 11:19:41 21° SSE 11:23:13 10° E daylight
25 Sep - 12:56:40 10° WSW 13:01:12 46° SSE 13:05:42 10° E daylight
25 Sep - 14:38:27 10° W 14:43:03 53° S 14:47:37 10° ESE daylight
25 Sep - 16:20:39 10° W 16:24:45 30° SSW 16:28:50 10° SE daylight
26 Sep - 10:02:47 10° SSE 10:04:11 11° SE 10:05:35 10° ESE daylight
26 Sep - 11:41:08 10° SW 11:45:22 32° SSE 11:49:35 10° E daylight
26 Sep - 13:22:29 10° WSW 13:27:07 54° S 13:31:42 10° E daylight
26 Sep - 15:04:28 10° W 15:08:58 44° SSW 15:13:24 10° SE daylight
26 Sep - 16:47:05 10° W 16:50:25 19° SW 16:53:43 10° S daylight
27 Sep - 10:26:14 10° SSW 10:29:43 20° SE 10:33:09 10° E daylight
27 Sep - 12:06:40 10° WSW 12:11:11 45° SSE 12:15:42 10° E daylight
27 Sep - 13:48:26 10° W 13:53:03 54° S 13:57:38 10° ESE daylight
27 Sep - 15:30:36 10° W 15:34:47 32° SSW 15:38:55 10° SE daylight
27 Sep - 17:14:57 10° SW 17:15:55 11° SW 17:16:52 10° SSW daylight
28 Sep - 09:13:25 10° SSE 09:14:14 10° SE 09:15:03 10° SE daylight
28 Sep - 10:51:11 10° SW 10:55:23 31° SSE 10:59:34 10° E daylight
28 Sep - 12:32:28 10° WSW 12:37:07 53° S 12:41:43 10° E daylight
28 Sep - 14:14:26 10° W 14:18:59 45° SSW 14:23:27 10° ESE daylight
28 Sep - 15:57:00 10° W 16:00:27 20° SW 16:03:54 10° SSE daylight
29 Sep - 09:36:23 10° S 09:39:44 19° SE 09:43:05 10° E daylight
29 Sep - 11:16:41 10° SW 11:21:12 43° SSE 11:25:42 10° E daylight
29 Sep - 12:58:24 10° W 13:03:03 54° S 13:07:39 10° ESE daylight
29 Sep - 14:40:33 10° W 14:44:48 33° SSW 14:48:59 10° SE daylight
29 Sep - 16:24:27 10° WSW 16:25:58 11° SW 16:27:29 10° SSW daylight
